Location: Stara Lesna
(49.1528°N, 20.2911°E)
Time: 19:07:02
(UTC+02:00)

Cosmos 1741 Rocket - Pass Details

Date: 13 July 2020
Orbit: 761 x 783 km, 74.0° (Epoch: 11 August)

Event Time Altitude Azimuth Distance (km) Brightness Sun altitude
Exits shadow 03:58:53 - 197° (SSW) 2,731 6.3 -7.0°
Reaches altitude 10° 04:00:01 10° 196° (SSW) 2,288 5.9 -6.8°
Maximum altitude 04:05:12 79° 110° (ESE) 783 4.2 -6.2°
Drops below altitude 10° 04:10:26 10° 26° (NNE) 2,311 7.9 -5.6°
Sets 04:12:50 0° 25° (NNE) 3,244 8.7 -5.3°
